FW1708 Weather Reports


time (UTC)temp
C
wind
direction
speed
KPH
gust
KPH
rain 1hr
cm
rain 24hr
cm
rain mn
cm
humidity
%
barometer
mb
20220124104606 -4 17 0.0 4.8 0.00 0.00 0.00 88 1013.0
20220124103109 -4 300 1.6 8.0 0.00 0.00 0.00 90 1012.9
20220124101619 -5 284 0.0 0.0 0.00 0.00 0.00 91 1012.4
20220124100101 -6 321 0.0 0.0 0.00 0.00 0.00 89 1012.6
20220124094516 -6 321 0.0 0.0 0.00 0.00 0.00 89 1012.1
20220124093011 -6 321 0.0 0.0 0.00 0.00 0.00 89 1011.7
20220124091521 -6 321 0.0 0.0 0.00 0.00 0.00 89 1011.6
20220124090005 -6 321 0.0 0.0 0.00 0.00 0.00 89 1011.4
20220124084503 -6 321 0.0 0.0 0.00 0.00 0.00 88 1011.3
20220124083155 -6 321 0.0 0.0 0.00 0.00 0.00 88 1011.1
20220124081725 -5 321 0.0 0.0 0.00 0.00 0.00 88 1011.1
20220124080141 -5 321 0.0 0.0 0.00 0.00 0.00 88 1011.2
20220124074641 -5 321 0.0 0.0 0.00 0.00 0.00 88 1011.0
20220124073105 -5 321 0.0 0.0 0.00 0.00 0.00 88 1011.0
20220124071744 -5 321 0.0 0.0 0.00 0.00 0.00 87 1010.8
20220124070110 -4 321 0.0 0.0 0.00 0.00 0.00 87 1010.6
20220124064650 -4 321 0.0 0.0 0.00 0.00 0.00 87 1010.6
20220124063106 -3 321 0.0 0.0 0.00 0.00 0.00 86 1010.4
20220124061543 -3 321 0.0 0.0 0.00 0.00 0.00 86 1010.3
20220124060142 -3 321 0.0 0.0 0.00 0.00 0.00 86 1010.2
20220124054627 -3 321 0.0 0.0 0.00 0.00 0.00 86 1010.2
20220124053058 -2 321 0.0 0.0 0.00 0.00 0.00 86 1010.2
20220124050050 -2 321 0.0 0.0 0.00 0.00 0.00 85 1010.2
20220124044541 -2 321 0.0 0.0 0.00 0.00 0.00 84 1010.2
20220124043123 -1 321 0.0 0.0 0.00 0.00 0.00 84 1010.3
20220124041809 -1 321 0.0 0.0 0.00 0.00 0.00 85 1010.4
20220124040103 -1 321 0.0 0.0 0.00 0.00 0.00 84 1010.3
20220124034546 -1 321 0.0 0.0 0.00 0.00 0.00 84 1010.3
20220124033055 -1 321 0.0 0.0 0.00 0.00 0.00 84 1010.3
20220124031600 -1 321 0.0 0.0 0.00 0.00 0.00 84 1010.3
20220124030054 -1 321 0.0 0.0 0.00 0.00 0.00 84 1010.2
20220124024536 -1 321 0.0 0.0 0.00 0.00 0.00 84 1010.2
20220124023055 -1 321 0.0 0.0 0.00 0.00 0.00 83 1010.3
20220124021542 -1 321 0.0 0.0 0.00 0.00 0.00 84 1010.3
20220124020146 -1 321 0.0 0.0 0.00 0.00 0.00 84 1010.4
20220124014537 -1 321 0.0 0.0 0.00 0.00 0.00 84 1010.3
20220124013029 -1 321 0.0 0.0 0.00 0.00 0.00 84 1010.4
20220124011603 -1 321 0.0 0.0 0.00 0.00 0.00 83 1010.4
20220124010101 -1 321 0.0 0.0 0.00 0.00 0.00 83 1010.4
20220124004531 -1 321 0.0 0.0 0.00 0.00 0.00 82 1010.5
20220124003026 -1 321 0.0 0.0 0.00 0.00 0.00 81 1010.5
20220124001540 -1 321 0.0 0.0 0.00 0.00 0.00 81 1010.4
20220124000119 -1 282 0.0 0.0 0.00 0.00 0.00 79 1010.4
20220123234554 -1 282 0.0 0.0 0.00 0.00 0.00 79 1010.4
20220123233111 0 282 0.0 0.0 0.00 0.00 0.00 77 1010.5
20220123231538 0 236 0.0 3.2 0.00 0.00 0.00 76 1010.5
20220123230058 0 250 0.0 3.2 0.00 0.00 0.00 73 1010.5
20220123224523 0 222 1.6 11.3 0.00 0.00 0.00 69 1010.6
20220123223025 0 271 3.2 9.7 0.00 0.00 0.00 63 1010.4
20220123221518 1 267 0.0 8.0 0.00 0.00 0.00 59 1010.2
20220123220027 1 248 0.0 4.8 0.00 0.00 0.00 56 1010.1
20220123214551 1 290 0.0 3.2 0.00 0.00 0.00 55 1010.0
20220123213017 1 290 1.6 6.4 0.00 0.00 0.00 54 1010.0
20220123211546 1 278 0.0 4.8 0.00 0.00 0.00 53 1010.2
20220123210014 1 260 1.6 8.0 0.00 0.00 0.00 53 1010.3
20220123204511 1 303 0.0 8.0 0.00 0.00 0.00 53 1010.5
20220123203013 1 267 3.2 6.4 0.00 0.00 0.00 53 1010.7
20220123201513 2 252 1.6 6.4 0.00 0.00 0.00 52 1010.8
20220123200008 2 278 0.0 9.7 0.00 0.00 0.00 53 1010.9
20220123194531 2 167 3.2 9.7 0.00 0.00 0.00 53 1011.2
20220123193011 1 298 1.6 6.4 0.00 0.00 0.00 53 1011.3
20220123191503 1 227 1.6 9.7 0.00 0.00 0.00 54 1011.4
20220123190014 1 269 0.0 9.7 0.00 0.00 0.00 55 1011.6
20220123184730 1 255 3.2 11.3 0.00 0.00 0.00 52 1011.7
20220123183212 1 271 0.0 4.8 0.00 0.00 0.00 54 1011.8
20220123181612 1 275 1.6 8.0 0.00 0.00 0.00 53 1012.1
20220123180146 1 183 1.6 11.3 0.00 0.00 0.00 53 1012.3
20220123174628 1 250 1.6 12.9 0.00 0.00 0.00 53 1012.5
20220123173148 1 171 3.2 9.7 0.00 0.00 0.00 52 1013.0
20220123171746 1 180 1.6 11.3 0.00 0.00 0.00 52 1013.4
20220123170105 1 269 1.6 12.9 0.00 0.00 0.00 54 1014.1
20220123164613 1 157 1.6 9.7 0.00 0.00 0.00 54 1014.4
20220123163124 1 248 3.2 14.5 0.00 0.00 0.00 54 1014.7
20220123161606 0 277 3.2 12.9 0.00 0.00 0.00 55 1014.9
20220123160056 0 149 1.6 6.4 0.00 0.00 0.00 55 1015.1
20220123154549 0 295 1.6 8.0 0.00 0.00 0.00 57 1015.5
20220123153105 0 194 0.0 6.4 0.00 0.00 0.00 58 1015.5
20220123151645 -1 160 0.0 4.8 0.00 0.00 0.00 59 1015.7
20220123150052 -1 260 0.0 3.2 0.00 0.00 0.00 61 1015.7
20220123144604 -2 152 0.0 3.2 0.00 0.00 0.00 64 1015.9
20220123143040 -3 264 0.0 1.6 0.00 0.00 0.00 63 1015.9
20220123141515 -3 287 0.0 3.2 0.00 0.00 0.00 61 1016.1
20220123140012 -4 260 0.0 3.2 0.00 0.00 0.00 62 1016.3
20220123134514 -5 281 0.0 3.2 0.00 0.00 0.00 64 1016.7
20220123133003 -6 281 0.0 3.2 0.00 0.00 0.00 70 1016.9
20220123131647 -7 279 0.0 0.0 0.00 0.00 0.00 77 1017.0
20220123130224 -8 279 0.0 0.0 0.00 0.00 0.00 78 1017.3
20220123124559 -8 279 0.0 0.0 0.00 0.00 0.00 80 1017.5
20220123123105 -9 279 0.0 0.0 0.00 0.00 0.00 80 1017.6
20220123121601 -9 279 0.0 0.0 0.00 0.00 0.00 81 1017.9
20220123120212 -10 279 0.0 0.0 0.00 0.00 0.00 81 1017.8
20220123114626 -10 279 0.0 0.0 0.00 0.00 0.00 80 1017.8
20220123113141 -10 279 0.0 0.0 0.00 0.00 0.00 80 1017.8
20220123111606 -10 279 0.0 0.0 0.00 0.00 0.00 80 1017.7
20220123110114 -10 279 0.0 0.0 0.00 0.00 0.00 80 1017.8